EW5447 Weather Reports


time (UTC)temp
F
wind
direction
speed
knots
gust
knots
rain 1hr
in
rain 24hr
in
rain mn
in
humidity
%
barometer
mb
20260505034552 63 292 3.5 7.8 0.00 0.00 0.00 67 1010.5
20260505033039 64 294 3.5 7.8 0.00 0.00 0.00 65 1010.3
20260505031537 65 298 4.3 9.6 0.00 0.00 0.00 63 1009.9
20260505030046 67 286 7.0 12.2 0.00 0.00 0.00 60 1009.5
20260505024536 68 301 8.7 13.0 0.00 0.00 0.00 58 1009.3
20260505023042 69 315 8.7 13.0 0.00 0.00 0.00 56 1009.3
20260505021535 70 274 10.4 14.8 0.00 0.00 0.00 54 1009.0
20260505020045 71 302 9.6 13.9 0.00 0.00 0.00 52 1009.0
20260505014539 72 282 7.0 13.9 0.00 0.00 0.00 50 1009.0
20260505013039 73 296 7.0 13.0 0.00 0.00 0.00 50 1009.1
20260505011634 74 309 7.0 12.2 0.00 0.00 0.00 46 1009.1
20260505010031 75 311 7.8 12.2 0.00 0.00 0.00 46 1009.0
20260505004554 76 323 7.0 13.9 0.00 0.00 0.00 44 1008.9
20260505003030 77 311 8.7 11.3 0.00 0.00 0.00 41 1008.7
20260505001535 78 300 7.8 14.8 0.00 0.00 0.00 40 1008.5
20260505000030 79 321 7.0 13.0 0.00 0.00 0.00 42 1008.6
20260504234528 80 345 7.8 15.6 0.00 0.03 0.00 39 1008.5
20260504233026 80 329 6.1 12.2 0.00 0.03 0.00 42 1008.5
20260504231524 81 310 7.0 12.2 0.00 0.03 0.00 43 1008.4
20260504230023 80 45 2.6 8.7 0.00 0.03 0.00 49 1008.5
20260504224524 79 180 0.9 4.3 0.00 0.03 0.00 49 1008.8
20260504223017 79 229 5.2 7.8 0.00 0.03 0.00 53 1009.2
20260504221514 78 226 6.1 7.8 0.00 0.03 0.00 53 1009.5
20260504220011 77 180 6.1 8.7 0.00 0.03 0.00 56 1009.7
20260504214510 77 246 6.1 10.4 0.00 0.03 0.00 55 1009.9
20260504213019 76 178 5.2 9.6 0.00 0.03 0.00 56 1010.1
20260504211506 76 240 5.2 10.4 0.00 0.03 0.00 55 1010.1
20260504210002 76 171 2.6 8.7 0.00 0.03 0.00 58 1010.5
20260504204559 74 190 1.7 9.6 0.00 0.03 0.00 58 1010.6
20260504203056 74 153 3.5 8.7 0.00 0.03 0.00 58 1010.8
20260504201555 74 257 5.2 9.6 0.00 0.03 0.00 60 1011.0
20260504200052 73 233 5.2 10.4 0.00 0.03 0.00 60 1011.2
20260504194556 73 207 1.7 7.0 0.00 0.03 0.00 61 1011.3
20260504193049 73 227 1.7 7.0 0.00 0.03 0.00 62 1011.6
20260504191608 71 126 2.6 5.2 0.00 0.03 0.00 60 1011.8
20260504190044 71 204 4.3 7.8 0.00 0.03 0.00 64 1012.0
20260504184550 71 229 0.0 4.3 0.00 0.03 0.00 65 1012.1
20260504183038 69 134 0.9 6.1 0.00 0.03 0.00 65 1012.3
20260504181535 70 26 0.0 2.6 0.00 0.03 0.00 68 1012.4
20260504180035 69 355 0.0 4.3 0.00 0.03 0.00 69 1012.5
20260504174529 67 111 0.9 4.3 0.00 0.03 0.00 68 1012.6
20260504173026 66 169 0.9 5.2 0.00 0.03 0.00 71 1012.7
20260504171523 65 190 0.9 5.2 0.00 0.03 0.00 72 1012.8
20260504081507 52 56 0.0 1.7 0.00 0.03 0.00 94 1011.5
20260504060105 56 121 0.9 2.6 0.00 0.03 0.03 93 1011.2
20260504044556 57 168 0.0 1.7 0.00 0.03 0.03 90 1011.0
20260504043101 57 123 0.9 2.6 0.00 0.03 0.03 91 1011.1
20260504041553 57 27 2.6 3.5 0.00 0.03 0.03 91 1010.9
20260504040052 58 269 2.6 3.5 0.00 0.03 0.03 88 1010.0